Jackpot

Texas Poker Multi Jackpot System

Kini Telah hadir Jackpot SUPER ROYAL FLUSH

Kini Telah hadir Jackpot 2000 (khusus table VIP keatas).

Ikutilah global jackpot yang tersedia di system kami, dengan system jackpot terbaru dan pertama di indonesia, anda dapat membeli jackpot dengan harga 100 rupiah saja dan menangkan hadiahnya hingga puluhan juta rupiah.

Jackpot bukanlah suatu keharusan untuk dibeli, namun kami memberikan suatu fitur tambahan untuk member tercinta dari www.enakpoker.top.

Terdapat tiga pilihan harga jackpot yang bisa anda beli yaitu :100,500,1000 dan 2000(khusus table VIP Keatas) rupiah.

Hadiah dari Multi jackpot system www.enakpoker.top

  1. full house x 10 harga jackpot yang anda beli.
      (contoh:anda membeli 1000 maka:1000 X10 = 10.000)
  2. four of kind x 250 harga jackpot yang anda beli
      (contoh:anda membeli 1000 maka:1000 X250 = 250.000)
  3. Straight flush x 1200
      (contoh:anda membeli 1000 maka:1000 X1200 = 1.200.000)
  4. Royal flush x 10000 harga jackpot yang anda beli
      (contoh:anda membeli 1000 maka:1000 X10000 = 10.000.000)
  5. SUPER ROYAL FLUSH x 30000 harga jackpot yang anda beli
      (contoh:anda membeli 1000 maka:1000 X30000 = 30.000.000)

Kondisi kartu

  1. full house adalah kondisi kartu dimana kartu anda dan kartu tengah dengan total 7 kartu bisa mendapatkan nilai 5 kartu dengan kombinasi 1 tris(three of kind) dan 1 pair, contoh 3 kartu 10 dan 2 kartu 5
  2. Four of kind adalah kondisi kartu dimana kartu anda dan kartu tengah dengan total 7 kartu bisa mendapatkan nilai 5 kartu dengan kombinasi 4 kartu yang sama jumlah dan 1 kartu apapun juga contoh anda mendapatkan 4 buah kartu angka 3 dan 1 kartu apapun.
  3. Staright flush adalah kondisi kartu dimana kartu anda dan kartu tengah dengan total 7 kartu bisa mendapatkan nilai 5 kartu dengan kombinasi seri / staright dengan kembang yang sama contoh : urutan kartu dari angka 5, 6, 7, 8 , 9 10 dengan kembang yg sama misalnya as hati
  4. Royal flush adalah kondisi kartu dimana kartu anda dan kartu tengah dengan total 7 kartu bisa mendapatkan nilai 5 kartu dengan kombinasi seri / staright dengan kembang yang sama tetapi kartu tersebut haruslah dimulai dari 10. contoh 10, Queen, Jack, King dan aces dengan kembang yang sama
  5. Super Royal flush adalah kondisi kartu dimana Kedua kartu anda digabung dengan 3 kartu pertama meja haruslah royal flush. contoh kartu anda 10,Queen kembang sama dan 3 kartu pertama meja adalah Jack, King dan aces dengan kembang yang sama

Demikian adalah penjelasan dari Multi Jackpot www.enakpoker.top terima kasih dan selamat bermain salam hoki dari kami

Texas Poker Jackpot Winner

TOP SUPER ROYAL FLUSH
No.TanggalNamaPriceWin
127/05 12:13DILAN00Super Royal flush6,000,000
227/05 11:55BUNGASERAISuper Royal flush15,000,000
327/05 10:07DONO90Super Royal flush15,000,000
427/05 09:46TC622NGLYTSuper Royal flush30,000,000
526/05 18:59GACO777Super Royal flush15,000,000
TOP ROYAL FLUSH
No.TanggalNamaPriceWin
127/05 16:03SIRONI99Royal flush5,000,000
227/05 16:02TOMOL23Royal flush2,000,000
327/05 16:00MATA12AMRoyal flush2,000,000
427/05 15:32SANDKINGSRoyal flush1,000,000
527/05 15:28PINCOK22Royal flush1,000,000
TOP STRAIGHT FLUSH
No.TanggalNamaPriceWin
127/05 16:22VICXON15Straight Flush240,000
227/05 16:19LUCKYS42Straight Flush600,000
327/05 16:18AZWIE99Straight Flush1,200,000
427/05 16:18MU_JU_R55Straight Flush1,200,000
527/05 16:14AHIEDXFBJ1Straight Flush120,000
LATEST JACKPOT
No.TanggalNamaPriceWin
127/05 16:22YANTO76Full House1,000
227/05 16:22HARUMWANGIFull House1,000
327/05 16:22IDHAM6623Four Of A Kind50,000
427/05 16:22B0565977Full House2,000
527/05 16:22DODOL104Full House2,000
627/05 16:22ATENG521Full House10,000
727/05 16:22WLVLKZL6K9Full House10,000
827/05 16:22VICXON15Straight Flush240,000
927/05 16:22AM1RA123Full House2,000
1027/05 16:22AJIMASLALIFull House10,000
1127/05 16:22BUNCIR88Full House5,000
1227/05 16:22MICOLOTFull House5,000
1327/05 16:22END_77Full House2,000
1427/05 16:22BODAY46Full House5,000
1527/05 16:22SMOOKERZFull House5,000
1627/05 16:22BARASCHARAFull House10,000
1727/05 16:22TARKIYAT77Full House20,000
1827/05 16:22EDA5L8GTVNFull House20,000
1927/05 16:22E9E57083Full House5,000
2027/05 16:22XMADHUNTC1Full House5,000
2127/05 16:22S0PATERYUFull House2,000
2227/05 16:22MATPINDINGFull House5,000
2327/05 16:22EK4399Full House2,000
2427/05 16:22ROSE43Full House5,000
2527/05 16:22GOKILLER83Full House1,000
2627/05 16:22BANZIR91Full House5,000
2727/05 16:22SMOMSOFull House2,000
2827/05 16:22WSK004VXHMFull House10,000
2927/05 16:22XEROX345Full House10,000
3027/05 16:22CAHNGANTUKFull House5,000
3127/05 16:22KESY44Full House20,000
3227/05 16:22APACHE90Full House1,000
3327/05 16:22P9PUTRAFull House5,000
3427/05 16:22HLEMAXRIBKFull House10,000
3527/05 16:22WATERMONFull House10,000
3627/05 16:22BOSJUDI94Four Of A Kind25,000
3727/05 16:22DEWO1789VFull House2,000
3827/05 16:22HABIB51Full House500
3927/05 16:22PH4PH4TFull House2,000
4027/05 16:22CIPAIT19Full House500
4127/05 16:22ROMI5Full House2,000
4227/05 16:22B4G1DU1TFour Of A Kind125,000
4327/05 16:22UCUPKLIQFull House1,000
4427/05 16:22BUTE88Full House1,000
4527/05 16:22HADIWAH91Full House500
4627/05 16:22ALANO7777Full House5,000
4727/05 16:22SHENS3888Full House1,000
4827/05 16:22KONCC021Full House2,000
4927/05 16:21BDECONG7Full House10,000
5027/05 16:21MUQKHLIS01Full House2,000

Domino Multi Jackpot System

Ikutilah global jackpot yang tersedia di system kami, dengan system jackpot terbaru dan pertama di indonesia, anda dapat membeli jackpot dengan harga 100 rupiah saja dan menangkan hadiahnya hingga puluhan juta rupiah.

Jackpot bukanlah suatu keharusan untuk dibeli, namun kami memberikan suatu fitur tambahan untuk member tercinta dari www.enakpoker.top.

Terdapat tiga pilihan harga jackpot yang bisa anda beli yaitu :100,500 dan 1000 rupiah.

Hadiah dari Multi jackpot system www.enakpoker.top

  1. Murni Kecil x 50 harga jackpot yang anda beli.
      (contoh:anda membeli 1000 maka:1000 X 50 = 50.000)
  2. Murni Besar x 50 harga jackpot yang anda beli
      (contoh:anda membeli 1000 maka:1000 X 50 = 50.000)
  3. BALAK x 100 harga jackpot yang anda beli
      (contoh:anda membeli 1000 maka:1000 X 100 = 100.000)
  4. ENAM DEWA x 6666 harga jackpot yang anda beli
      (contoh:anda membeli 1000 maka:1000 X 6666 = 6.666.000)

Demikian adalah penjelasan dari Multi Jackpot www.enakpoker.top terima kasih dan selamat bermain salam hoki dari kami

Domino Jackpot Winner

TOP ENAM DEWA
No.TanggalNamaPriceWin
127/05 16:13DIJOSRAmurni enam6,666,000
227/05 13:57ON99ON99murni enam3,333,000
327/05 12:29MURNI2110murni enam666,600
427/05 05:24UWOK1213murni enam6,666,000
527/05 02:28ANDHY417murni enam3,333,000
TOP BALAK
No.TanggalNamaPriceWin
127/05 16:22BHONC0ZZbalak100,000
227/05 16:22SMD9128balak100,000
327/05 16:21AJISAPURObalak100,000
427/05 16:14SADEGAHOKIbalak100,000
527/05 16:04ACNAV5balak10,000
LATEST JACKPOT
No.TanggalNamaPriceWin
127/05 16:22BHONC0ZZbalak100,000
227/05 16:22TANDUS22murni kecil50,000
327/05 16:22ABLEW14murni besar25,000
427/05 16:22SELIKAmurni kecil50,000
527/05 16:22SMD9128balak100,000
627/05 16:21FATMELAmurni besar25,000
727/05 16:21AJISAPURObalak100,000
827/05 16:20ABAK09murni besar5,000
927/05 16:20RABUDmurni kecil5,000
1027/05 16:20RO1407murni besar5,000
1127/05 16:19BAH122murni kecil25,000
1227/05 16:18WK22murni kecil50,000
1327/05 16:14SADEGAHOKIbalak100,000
1427/05 16:13DIJOSRAmurni enam6,666,000
1527/05 16:13RIZQI_077murni kecil5,000
1627/05 16:12MZN71murni kecil50,000
1727/05 16:12OONYIELlucky9950,000
1827/05 16:11JEKRO45murni besar5,000
1927/05 16:11SELALUWIN_murni kecil5,000
2027/05 16:09RO1407murni kecil5,000
2127/05 16:09SKAY24lucky9925,000
2227/05 16:08SELALUWIN_murni kecil5,000
2327/05 16:08HK4DTEMPRAMENmurni besar50,000
2427/05 16:08BAHIRAANmurni besar50,000
2527/05 16:06ROYSEDERHAmurni besar25,000
2627/05 16:06AQUINO1712murni kecil25,000
2727/05 16:05AAAYEmurni kecil50,000
2827/05 16:05FUCK_YOU86murni kecil5,000
2927/05 16:04ACNAV5balak10,000
3027/05 16:04BIANG998murni besar50,000
3127/05 16:04ANDRIRAGILmurni besar50,000
3227/05 16:04GOODPAPAmurni besar25,000
3327/05 16:03USOOOOOYmurni kecil50,000
3427/05 16:03WAHISRImurni kecil50,000
3527/05 16:03AB2466KLmurni kecil5,000
3627/05 16:01ABOET123murni kecil50,000
3727/05 16:01CAT193murni besar50,000
3827/05 16:01DHIGA123lucky9925,000
3927/05 16:00HUSQ1murni kecil50,000
4027/05 16:00KPN72murni besar25,000
4127/05 16:00RAJATOL311murni kecil5,000
4227/05 15:59ZINGGOTmurni besar50,000
4327/05 15:59UNTUNGBGT9murni kecil25,000
4427/05 15:58IJUL_66lucky9910,000
4527/05 15:58AQUINO1712murni besar25,000
4627/05 15:57KUSKUSBOELmurni kecil5,000
4727/05 15:57RIDHO531balak10,000
4827/05 15:57LK4DMA2RAKKA01balak10,000
4927/05 15:57TANDUS22murni besar50,000
5027/05 15:56S4_REM4murni besar25,000

Ceme Multi Jackpot System

Jackpot dilihat dari gabungan kartu pemain dengan kartu bandar. Bandar harus membeli jackpot sebanyak jumlah player yang sedang duduk. Sebagai contoh bila terdapat 3 pemain duduk bermain, dan bandar memutuskan untuk membeli jackpot Rp 1.000, maka pada periode tersebut bandar akan membeli jackpot sebanyak 3xRp1.000 = Rp3.000.

Jackpot bukanlah suatu keharusan untuk dibeli, namun kami memberikan suatu fitur tambahan untuk member tercinta dari www.enakpoker.top.

Terdapat tiga pilihan harga jackpot yang bisa anda beli yaitu :100,500 dan 1000 rupiah.

Hadiah dari Multi jackpot system www.enakpoker.top

  1. Murni Kecil x 50 harga jackpot yang anda beli.
      (contoh:anda membeli 1000 maka:1000 X 50 = 50.000)
  2. Murni Besar x 50 harga jackpot yang anda beli
      (contoh:anda membeli 1000 maka:1000 X 50 = 50.000)
  3. BALAK x 200 harga jackpot yang anda beli
      (contoh:anda membeli 1000 maka:1000 X 200 = 200.000)
  4. ENAM DEWA x 6666 harga jackpot yang anda beli
      (contoh:anda membeli 1000 maka:1000 X 6666 = 6.666.000)

Demikian adalah penjelasan dari Multi Jackpot www.enakpoker.top terima kasih dan selamat bermain salam hoki dari kami

Ceme Jackpot Winner

TOP ENAM DEWA
No.TanggalNamaPriceWin
127/05 16:11BHEKEN10murni enam666,600
227/05 16:11KUKANG222murni enam3,333,000
327/05 16:04DEASKY79murni enam6,666,000
427/05 15:34ALDIAGUSmurni enam666,600
527/05 15:34WY12murni enam3,333,000
TOP BALAK
No.TanggalNamaPriceWin
127/05 16:22ZHF4LW86RWbalak200,000
227/05 16:21YOUWIN001balak100,000
327/05 16:21LEECUNbalak200,000
427/05 16:21CHELLA1234balak100,000
527/05 16:20DAGOL9balak200,000
LATEST JACKPOT
No.TanggalNamaPriceWin
127/05 16:22LEECUNmurni kecil50,000
227/05 16:22POETRIAYUmurni besar50,000
327/05 16:22B4EFF837murni kecil5,000
427/05 16:22AGENKUDOmurni kecil50,000
527/05 16:22TRIYONO81murni kecil50,000
627/05 16:22BIMAAMIBmurni kecil25,000
727/05 16:22GAJI89murni besar50,000
827/05 16:22ZHF4LW86RWbalak200,000
927/05 16:21YOUWIN001balak100,000
1027/05 16:21M45YUDmurni kecil25,000
1127/05 16:21ORATRIMOmurni kecil50,000
1227/05 16:21LEECUNbalak200,000
1327/05 16:21CHELLA1234balak100,000
1427/05 16:21FR3DIAJAmurni besar50,000
1527/05 16:21MIKEYWAYmurni besar50,000
1627/05 16:21CIKOJOSmurni besar50,000
1727/05 16:21KIMOMPOLmurni besar50,000
1827/05 16:21MESTREHmurni kecil5,000
1927/05 16:21JPKILL88murni kecil25,000
2027/05 16:21KASTHEMmurni kecil50,000
2127/05 16:21PCPG66I4MXmurni besar50,000
2227/05 16:20LEECUNmurni kecil50,000
2327/05 16:20DAGOL9balak200,000
2427/05 16:20KOKOWAHbalak200,000
2527/05 16:20S0R193EJEDmurni kecil50,000
2627/05 16:20NAGACA11murni kecil5,000
2727/05 16:20S0R193EJEDmurni kecil50,000
2827/05 16:20CHELSCK9murni kecil5,000
2927/05 16:20WWT10murni kecil50,000
3027/05 16:20JOYOROYO99murni kecil25,000
3127/05 16:20KENCUT09balak100,000
3227/05 16:20LUCKY_MANSbalak20,000
3327/05 16:20WOLVERONbalak200,000
3427/05 16:20B404PRbalak20,000
3527/05 16:20WOLVERONbalak200,000
3627/05 16:20RIAN1891balak100,000
3727/05 16:20BISON6666murni kecil50,000
3827/05 16:20B3CCE4D1murni kecil25,000
3927/05 16:20KARTU88899murni kecil25,000
4027/05 16:20DAGOL9murni kecil50,000
4127/05 16:20ROHISAH75murni kecil50,000
4227/05 16:20BAYER86murni besar50,000
4327/05 16:20YUNUS07069murni besar5,000
4427/05 16:19PAADDDbalak200,000
4527/05 16:19B4N6K3QQmurni kecil25,000
4627/05 16:19AARIEF1717murni kecil50,000
4727/05 16:19GIBRAN_17murni kecil5,000
4827/05 16:19WOLVERONbalak200,000
4927/05 16:19SONGG08898balak200,000
5027/05 16:19AMEHROYALbalak200,000